CZ-4B R/B, 44531

Orbit data source: Space-Track

CZ-4B R/B, 44531 is space debris in SSO originally from a launch on Thu, 12 Sep 2019 UTC launched from the Taiyaun Space Center, China (TSC). Debris objects in space refer to the collection of defunct objects orbiting the Earth. Examples of debris include non-operational satellites, rocket bodies, and fragments generated from explosions, collisions, or faulty payload assembly.

Loading next visibility...
Identifier
44531, 2019-059D
Orbit
SSO
Country
Flag of CNCN / PRC
Related business
Manufacturer
SAST
Mission
Spacecraft
Bus & Motor
CZ-4 STAGE 3, Unknown motor
Mass
~1,000 kg wet, ~1,000 kg dry
Launch date (UTC)
2019-09-12 (7 years ago)
Launch vehicle
Unknown
Launch site
Taiyaun Space Center, China (TSC)
Object type
Payload
Rocket body
Debris
Shape & HBR
Cyl, 2.5 m
Radar Cross Section
14.536 m², Large (>1 m²)

Expand to show TLE details & history
Last TLE update: 2 days ago

TLE from 2 days ago
0 CZ-4B R/B
1 44531U 19059D   26171.13652205  .00002695  00000-0  12222-3 0  9996
2 44531  98.7101 203.8430 0133064 227.6835 131.3058 15.14403567370181
Epoch: 2026-06-20T03:16Z
TLE epoch observation values (Epoch: 2026-06-20T03:16:35.505Z)
Latitude
0.00001°
Longitude
-113.66041°
Altitude
587.139 km
Speed
7.533 km/s
True Right ascension
13h 35m 22s
True Declination
0° 00' 00"
Sunlit
Object was in daylight at epoch
Visualization orbit readout
Latitude
Unknown
Longitude
Unknown
Altitude
Unknown
Speed
Unknown
Apparent Right ascension
Unknown
Apparent Declination
Unknown
Sunlit
N/A
Visualization observer readout
Local Sidereal Time
21:52:39
Azimuth
Unknown
Elevation
Unknown
Doppler factor
Unknown
Orbital elements
Apogee altitude
611.61 km
Perigee altitude
428.036 km
Semi-major axis
6,897.96 km
Eccentricity
0.01331
Inclination
98.7101°
RAAN
203.843°
Arg. of periapsis
227.6835°
True anomaly
132.43871°
Mean anomaly
131.3058°
Eccentric anomaly
131.8735°
Mean motion
3.78846 °/min
Orbital period
95.03 mins
BSTAR
0.00012222
Loading maneuver chart data...
Computing Atmospheric mass density...
Loading historical data...
Loading historical data...
Loading historical data...
Loading historical data...
Loading historical data...
Loading historical data...
Loading historical data...
Other satellites on launch #59 in the year 2019 (2019-09-12 UTC)

Documentation

Showing up to 5 results
|